Home   Weather   Zárate   Past weeks

Flag for Argentina Past Weather in Zárate, Buenos Aires, Argentina — Yesterday and Last 2 Weeks

Now
77 °F

Clear.


Feels Like: 79 °F
Forecast: 74 / 90 °F
Wind: 6 mph from South

Location: Buenos Aires Airport

Current Time: Feb 22, 2017 at 12:57:14 am

Latest Report: Feb 22, 2017 at 12:00 am


Visibility: 10 mi

Pressure: 29.92 "Hg

Humidity: 79%

Dew Point: 70 °F

Location of ZárateLocation

Past Weather in Zárate — Graph

°F

Zárate Temperature Yesterday

Maximum temperature yesterday: 90 °F (at 1:00 pm)
Minimum temperature yesterday: 75 °F (at 6:00 pm)
Average temperature yesterday: 82 °F

High & Low Weather Summary for the Past Weeks

 TemperatureHumidityPressure
High90 °F (Feb 15, 4:00 pm)100% (Feb 18, 6:00 am)30.04 "Hg (Feb 18, 6:00 am)
Low61 °F (Feb 7, 4:00 am)24% (Feb 7, 4:04 pm)29.62 "Hg (Feb 18, 4:00 am)
Average76 °F76%29.88 "Hg
* Reported Feb 6 11:00 pm — Feb 21 11:00 pm, Zárate, Weather by CustomWeather, © 2017

Note: Actual official high and low records may vary slightly from our data, if they occured in-between our weather recording intervals... More about our weather records

Advertising

Zárate Weather History for the Previous 24 Hours

Scroll right to see more
 ConditionsComfort  
Time TempWeatherWind HumidityBarometerVisibility
11:00 pm
Tue, Feb 21
77 °FMostly cloudy.7 mph79%29.92 "HgN/A
10:00 pm75 °FMostly cloudy.8 mph83%29.86 "HgN/A
9:00 pm75 °FLight rain. Mostly cloudy.12 mph89%29.89 "Hg6 mi
8:00 pm75 °FLight rain. Mostly cloudy.14 mph89%29.86 "Hg6 mi
7:00 pm77 °FThunderstorms. Partly sunny.8 mph79%29.89 "HgN/A
6:30 pm75 °FThunderstorms. Partly sunny.21 mph83%29.89 "Hg2 mi
6:00 pm75 °FThunderstorms. Broken clouds.6 mph94%29.95 "Hg0 mi
5:21 pm88 °FThunderstorms. Broken clouds.9 mph75%29.86 "Hg1 mi
5:07 pm88 °FThunderstorms. Scattered clouds.10 mph75%29.86 "Hg3 mi
4:40 pm88 °FThunderstorms. Partly sunny.9 mph75%29.86 "Hg6 mi
4:00 pm88 °FScattered clouds.6 mph75%29.86 "HgN/A
3:00 pm88 °FScattered clouds.8 mph75%29.89 "HgN/A
2:00 pm88 °FScattered clouds.9 mph75%29.92 "HgN/A
1:00 pm90 °FScattered clouds.7 mph71%29.95 "HgN/A
12:00 pm86 °FScattered clouds.9 mph79%29.95 "HgN/A
11:00 am86 °FSunny.7 mph75%29.98 "Hg10 mi
10:00 am84 °FPassing clouds.7 mph74%29.98 "HgN/A
9:00 am86 °FPassing clouds.3 mph66%29.95 "HgN/A
8:00 am81 °FSunny.6 mph84%29.98 "Hg10 mi
7:00 am81 °FPassing clouds.6 mph84%29.95 "HgN/A
6:00 am81 °FClear.2 mph89%29.95 "Hg10 mi
5:00 am81 °FClear.3 mph84%29.92 "Hg10 mi
4:00 am81 °FClear.2 mph84%29.92 "Hg10 mi
3:00 am81 °FClear.2 mph89%29.95 "Hg10 mi
2:00 am81 °FClear.2 mph89%29.95 "Hg10 mi
1:00 am82 °FClear.5 mph79%29.98 "Hg10 mi
12:00 am82 °FClear.5 mph70%29.98 "Hg10 mi
Weather by CustomWeather, © 2017

See weather overviewHow to use our weather pages